{"data":{"norad_id":66303,"intl_designator":"2025-248L","name":"STARCLOUD-1","alt_names":[],"object_type":"PAYLOAD","status":"ACTIVE","operator":null,"country":"US","launch_date":"2025-11-02","launch_site_code":"AFETR","launch_vehicle":null,"mission":null,"orbit_class":"UNKNOWN","rcs_meters":null,"size_class":null,"mass_kg":null,"dimensions":null,"purposes":[],"wikipedia_slug":null,"has_3d_model":false,"image_url":null,"decayed_at":null,"tle_current":{"epoch":"2026-09-20T20:58:36.983424Z","epoch_age_seconds":99413,"freshness":"FRESH","line1":"1 66303U 25248L   26263.87403916  .00002658  00000+0  12618-3 0  9997","line2":"2 66303  45.4026 326.3175 0005924 234.4611 125.5724 15.22128115 49118","mean_motion":15.22128115,"eccentricity":0.0005924,"inclination_deg":45.4026,"raan_deg":326.3175,"arg_perigee_deg":234.4611,"mean_anomaly_deg":125.5724,"bstar":0.00012618,"rev_number":4911,"period_min":94.60438880337,"perigee_km":495.34844175908,"apogee_km":503.49697450127,"semimajor_km":6877.5597081302,"source":"CELESTRAK","updated_at":"2026-09-21T09:00:15.902625Z"}}}